When you browse on this site, cookies collect data to enhance your experience and personalize the content and advertising you see.
Visit our Privacy Policy to learn more. By continuing to use the site, you agree to this use of cookies and data.
  • In Sweden
  • List of Countries
  • For 7 days
  • Water Temperature
  • Satellite Maps
  • Weather Map
  • Weather Widgets
  • user-avatar
    Login

    Hourly Weather Tirana

    Today, 17 July, Wednesday

    Time Temperature Precipitation Wind Pressure Humidity
    00:00 +18°C° 0 mm 2 mps 749 mmHg 79%
    01:00 +19°C° 0 mm 4 mps 749 mmHg 77%
    02:00 +18°C° 0 mm 4 mps 749 mmHg 77%
    03:00 +18°C° 0 mm 4 mps 749 mmHg 77%
    04:00 +18°C° 0 mm 4 mps 749 mmHg 77%
    05:00 +19°C° 0 mm 4 mps 749 mmHg 72%
    06:00 +21°C° 0 mm 3 mps 749 mmHg 66%
    07:00 +24°C° 0 mm 3 mps 749 mmHg 61%
    08:00 +26°C° 0 mm 3 mps 750 mmHg 53%
    09:00 +28°C° 0 mm 2 mps 750 mmHg 46%
    10:00 +30°C° 0 mm 2 mps 750 mmHg 38%
    11:00 +31°C° 0 mm 3 mps 750 mmHg 36%
    12:00 +32°C° 0 mm 4 mps 750 mmHg 35%
    13:00 +33°C° 0 mm 5 mps 750 mmHg 33%
    14:00 +32°C° 0 mm 6 mps 750 mmHg 37%
    15:00 +30°C° 0 mm 6 mps 750 mmHg 40%
    16:00 +29°C° 0 mm 7 mps 750 mmHg 43%
    17:00 +28°C° 0 mm 6 mps 750 mmHg 50%
    18:00 +26°C° 0 mm 5 mps 750 mmHg 58%
    19:00 +23°C° 0 mm 4 mps 749 mmHg 65%
    20:00 +22°C° 0 mm 3 mps 750 mmHg 67%
    21:00 +21°C° 0 mm 2 mps 750 mmHg 68%
    22:00 +21°C° 0 mm 2 mps 751 mmHg 70%
    23:00 +20°C° 0 mm 2 mps 751 mmHg 70%

    Tomorrow, 18 July, Thursday

    Time Temperature Precipitation Wind Pressure Humidity
    00:00 +20°C° 0 mm 2 mps 751 mmHg 70%
    01:00 +20°C° 0 mm 2 mps 751 mmHg 70%
    02:00 +20°C° 0 mm 2 mps 750 mmHg 69%
    03:00 +20°C° 0 mm 2 mps 750 mmHg 67%
    04:00 +19°C° 0 mm 2 mps 750 mmHg 65%
    05:00 +21°C° 0 mm 2 mps 750 mmHg 61%
    06:00 +23°C° 0 mm 2 mps 750 mmHg 57%
    07:00 +25°C° 0 mm 2 mps 751 mmHg 52%
    08:00 +27°C° 0 mm 2 mps 751 mmHg 48%
    09:00 +28°C° 0 mm 2 mps 751 mmHg 43%
    10:00 +30°C° 0 mm 2 mps 751 mmHg 39%
    11:00 +31°C° 0 mm 3 mps 751 mmHg 39%
    12:00 +31°C° 0 mm 3 mps 751 mmHg 39%
    13:00 +33°C° 0 mm 4 mps 751 mmHg 39%
    14:00 +32°C° 0 mm 4 mps 751 mmHg 42%
    15:00 +30°C° 0 mm 4 mps 751 mmHg 45%
    16:00 +29°C° 0 mm 3 mps 751 mmHg 48%
    17:00 +28°C° 0 mm 3 mps 751 mmHg 54%
    18:00 +26°C° 0 mm 2 mps 751 mmHg 59%
    19:00 +25°C° 0 mm 1 mps 751 mmHg 65%
    20:00 +24°C° 0 mm 1 mps 751 mmHg 66%
    21:00 +23°C° 0 mm 1 mps 752 mmHg 68%
    22:00 +23°C° 0 mm 1 mps 752 mmHg 70%
    23:00 +22°C° 0 mm 1 mps 752 mmHg 70%

    Day after tomorrow, 19 July, Friday

    Time Temperature Precipitation Wind Pressure Humidity
    00:00 +22°C° 0 mm 1 mps 752 mmHg 71%
    01:00 +22°C° 0 mm 1 mps 752 mmHg 72%
    02:00 +21°C° 0 mm 1 mps 752 mmHg 73%
    03:00 +21°C° 0 mm 1 mps 752 mmHg 73%
    04:00 +21°C° 0 mm 1 mps 752 mmHg 74%
    05:00 +23°C° 0 mm 1 mps 753 mmHg 68%
    06:00 +24°C° 0 mm 1 mps 753 mmHg 62%
    07:00 +26°C° 0 mm 1 mps 753 mmHg 57%
    08:00 +28°C° 0 mm 1 mps 753 mmHg 51%
    09:00 +29°C° 0 mm 1 mps 753 mmHg 46%
    10:00 +31°C° 0 mm 2 mps 753 mmHg 41%
    11:00 +31°C° 0 mm 3 mps 753 mmHg 40%
    12:00 +33°C° 0 mm 3 mps 753 mmHg 40%
    13:00 +34°C° 0 mm 4 mps 753 mmHg 39%
    14:00 +33°C° 0 mm 4 mps 753 mmHg 41%
    15:00 +32°C° 0 mm 4 mps 753 mmHg 42%
    16:00 +30°C° 0 mm 4 mps 753 mmHg 44%
    17:00 +29°C° 0 mm 3 mps 753 mmHg 50%
    18:00 +27°C° 0 mm 2 mps 753 mmHg 56%
    19:00 +25°C° 0 mm 2 mps 753 mmHg 63%
    20:00 +25°C° 0 mm 1 mps 754 mmHg 64%
    21:00 +24°C° 0 mm 1 mps 754 mmHg 66%
    22:00 +23°C° 0 mm 1 mps 754 mmHg 68%
    23:00 +23°C° 0 mm 1 mps 754 mmHg 68%

    20 July, Saturday

    Time Temperature Precipitation Wind Pressure Humidity
    00:00 +22°C° 0 mm 1 mps 754 mmHg 69%
    01:00 +22°C° 0 mm 1 mps 754 mmHg 70%
    02:00 +22°C° 0 mm 1 mps 754 mmHg 70%
    03:00 +22°C° 0 mm 1 mps 754 mmHg 71%
    04:00 +21°C° 0 mm 1 mps 754 mmHg 72%
    05:00 +23°C° 0 mm 1 mps 754 mmHg 65%
    06:00 +25°C° 0 mm 1 mps 754 mmHg 59%
    07:00 +27°C° 0 mm 1 mps 754 mmHg 53%
    08:00 +28°C° 0 mm 1 mps 755 mmHg 48%
    09:00 +30°C° 0 mm 2 mps 755 mmHg 42%
    10:00 +33°C° 0 mm 3 mps 755 mmHg 37%
    11:00 +33°C° 0 mm 3 mps 755 mmHg 36%
    12:00 +34°C° 0 mm 4 mps 755 mmHg 35%
    13:00 +35°C° 0 mm 4 mps 755 mmHg 35%
    14:00 +34°C° 0 mm 4 mps 755 mmHg 37%
    15:00 +33°C° 0 mm 4 mps 754 mmHg 40%
    16:00 +32°C° 0 mm 4 mps 754 mmHg 42%
    17:00 +29°C° 0 mm 4 mps 754 mmHg 48%
    18:00 +28°C° 0 mm 3 mps 755 mmHg 54%
    19:00 +26°C° 0 mm 2 mps 755 mmHg 60%
    20:00 +25°C° 0 mm 2 mps 755 mmHg 62%
    21:00 +25°C° 0 mm 1 mps 755 mmHg 63%
    22:00 +24°C° 0 mm 1 mps 756 mmHg 65%
    23:00 +24°C° 0 mm 1 mps 756 mmHg 66%

    21 July, Sunday

    Time Temperature Precipitation Wind Pressure Humidity
    00:00 +23°C° 0 mm 1 mps 755 mmHg 67%
    01:00 +23°C° 0 mm 1 mps 755 mmHg 68%
    02:00 +23°C° 0 mm 1 mps 755 mmHg 69%
    03:00 +23°C° 0 mm 1 mps 755 mmHg 70%
    04:00 +23°C° 0 mm 1 mps 755 mmHg 70%
    05:00 +24°C° 0 mm 1 mps 755 mmHg 65%
    06:00 +26°C° 0 mm 1 mps 755 mmHg 59%
    07:00 +28°C° 0 mm 1 mps 755 mmHg 53%
    08:00 +30°C° 0 mm 1 mps 755 mmHg 49%
    09:00 +31°C° 0 mm 2 mps 755 mmHg 44%
    10:00 +34°C° 0 mm 3 mps 756 mmHg 39%
    11:00 +35°C° 0 mm 4 mps 755 mmHg 38%
    12:00 +36°C° 0 mm 4 mps 755 mmHg 37%
    13:00 +36°C° 0 mm 5 mps 755 mmHg 35%
    14:00 +36°C° 0 mm 5 mps 755 mmHg 37%
    15:00 +35°C° 0 mm 5 mps 755 mmHg 39%
    16:00 +34°C° 0 mm 5 mps 754 mmHg 40%
    17:00 +32°C° 0 mm 4 mps 755 mmHg 47%
    18:00 +29°C° 0 mm 3 mps 755 mmHg 53%
    19:00 +27°C° 0 mm 2 mps 755 mmHg 60%
    20:00 +26°C° 0 mm 2 mps 755 mmHg 61%
    21:00 +26°C° 0 mm 1 mps 755 mmHg 63%
    22:00 +25°C° 0 mm 1 mps 755 mmHg 64%
    23:00 +25°C° 0 mm 1 mps 755 mmHg 65%

    22 July, Monday

    Time Temperature Precipitation Wind Pressure Humidity
    00:00 +25°C° 0 mm 1 mps 755 mmHg 66%
    01:00 +23°C° 0 mm 0 mps 755 mmHg 66%
    02:00 +24°C° 0 mm 1 mps 755 mmHg 67%
    03:00 +24°C° 0 mm 1 mps 754 mmHg 68%
    04:00 +24°C° 0 mm 1 mps 754 mmHg 68%
    05:00 +26°C° 0 mm 1 mps 754 mmHg 63%
    06:00 +25°C° 0 mm 0 mps 754 mmHg 58%
    07:00 +27°C° 0 mm 0 mps 754 mmHg 53%
    08:00 +31°C° 0 mm 1 mps 754 mmHg 48%
    09:00 +33°C° 0 mm 1 mps 754 mmHg 43%
    10:00 +36°C° 0 mm 2 mps 754 mmHg 38%
    11:00 +37°C° 0 mm 2 mps 754 mmHg 37%
    12:00 +37°C° 0 mm 3 mps 754 mmHg 36%
    13:00 +38°C° 0 mm 4 mps 753 mmHg 35%
    14:00 +37°C° 0 mm 4 mps 753 mmHg 37%
    15:00 +36°C° 0 mm 5 mps 753 mmHg 39%
    16:00 +35°C° 0 mm 5 mps 753 mmHg 41%
    17:00 +33°C° 0 mm 4 mps 753 mmHg 45%
    18:00 +30°C° 0 mm 3 mps 753 mmHg 50%
    19:00 +28°C° 0 mm 2 mps 753 mmHg 55%
    20:00 +28°C° 0 mm 2 mps 753 mmHg 58%
    21:00 +27°C° 0 mm 1 mps 753 mmHg 60%
    22:00 +26°C° 0 mm 1 mps 753 mmHg 63%
    23:00 +26°C° 0 mm 1 mps 753 mmHg 63%
    Show more